XML Sitemap

This is a XML Sitemap which is supposed to be processed by search engines which follow the XML Sitemap standard like Ask.com, Bing, Google and Yahoo.
It was generated using the WordPress content management system and the Google Sitemap Generator Plugin by Arne Brachhold.
You can find more information about XML sitemaps on sitemaps.org and Google's list of sitemap programs.

URLPriorityChange frequencyLast modified (GMT)
http://download.yallablog.net/144142/foobar2000-1-1-5/60%Monthly2011-02-28 07:56
http://download.yallablog.net/144139/evernote-4-2-2-3913/60%Monthly2011-02-27 05:08
http://download.yallablog.net/144140/peazip-3-6-2/60%Monthly2011-02-27 04:37
http://download.yallablog.net/144141/fastpictureviewer-1-4-build-179-32-bit/60%Monthly2011-02-27 04:27
http://download.yallablog.net/144138/firefox-4-0-beta-12/60%Monthly2011-02-26 05:09
http://download.yallablog.net/144136/ccleaner-delete-temporary-files-3-04/60%Monthly2011-02-25 17:00
http://download.yallablog.net/144137/avast-free-antivirus-6-0-1/60%Monthly2011-02-25 17:00
http://download.yallablog.net/144134/orbit-downloader-4-0-7/60%Monthly2011-02-25 11:57
http://download.yallablog.net/144135/any-video-converter-3-19/60%Monthly2011-02-25 11:14
http://download.yallablog.net/144130/argouml-0-32-1/60%Monthly2011-02-25 05:13
http://download.yallablog.net/144131/topstyle-4-0-0-85/60%Monthly2011-02-25 04:46
http://download.yallablog.net/144132/windows-7-codecs-2-7-6/60%Monthly2011-02-25 04:44
http://download.yallablog.net/144133/utorrent-2-2-1-beta-24796/60%Monthly2011-02-25 04:38
http://download.yallablog.net/144129/ccleaner-3-04-1389/60%Monthly2011-02-24 13:11
http://download.yallablog.net/144125/avast-free-antivirus-6-0-1000/60%Monthly2011-02-24 12:04
http://download.yallablog.net/144126/maxthon-3-0-20-5000/60%Monthly2011-02-24 11:24
http://download.yallablog.net/144127/foxit-reader-4-3-1-0218/60%Monthly2011-02-24 08:59
http://download.yallablog.net/144128/winscp-4-3-2/60%Monthly2011-02-24 05:06
http://download.yallablog.net/144122/soluto-1-1-1369-beta/60%Monthly2011-02-23 12:53
http://download.yallablog.net/144123/pegasus-mail-4-61/60%Monthly2011-02-23 11:47
http://download.yallablog.net/144124/fluffyapp-1-0-beta-5/60%Monthly2011-02-23 11:46
http://download.yallablog.net/144120/fraps-3-3-0/60%Monthly2011-02-23 09:21
http://download.yallablog.net/144121/google-toolbar-6-6-1409-1944-ie/60%Monthly2011-02-23 07:25
http://download.yallablog.net/144114/foobar2000-1-1-3/60%Monthly2011-02-22 04:46
http://download.yallablog.net/144115/superantispyware-4-49-1000/60%Monthly2011-02-22 04:43
http://download.yallablog.net/144111/python-3-2/60%Monthly2011-02-21 05:40
http://download.yallablog.net/144112/winrar-4-00-beta-7-32-bit/60%Monthly2011-02-21 05:11
http://download.yallablog.net/144113/paint-net-3-5-7/60%Monthly2011-02-21 05:02
http://download.yallablog.net/144116/winrar-4-beta-7/60%Monthly2011-02-21 05:00
http://download.yallablog.net/144117/winrar-4-beta-7-2/60%Monthly2011-02-21 05:00
http://download.yallablog.net/144118/paint-net-3-5-7-2/60%Monthly2011-02-21 05:00
http://download.yallablog.net/144119/paint-net-3-5-7-2/60%Monthly2011-02-21 05:00
http://download.yallablog.net/144110/fastpictureviewer-1-4-build-178-32-bit/60%Monthly2011-02-20 04:43
http://download.yallablog.net/144100/cpu-z-1-57/60%Monthly2011-02-19 04:04
http://download.yallablog.net/144101/cpu-z-1-57/60%Monthly2011-02-19 04:04
http://download.yallablog.net/144102/win7codecs-2-7-5/60%Monthly2011-02-18 10:00
http://download.yallablog.net/144103/win7codecs-2-7-5/60%Monthly2011-02-18 10:00
http://download.yallablog.net/144104/google-chrome-fatest-internet-browser-11-0-67-beta/60%Monthly2011-02-18 10:00
http://download.yallablog.net/144105/google-chrome-fatest-internet-browser-11-0-67-beta/60%Monthly2011-02-18 10:00
http://download.yallablog.net/144106/internet-download-manager-fatest-downloader-6-05/60%Monthly2011-02-18 10:00
http://download.yallablog.net/144107/internet-download-manager-fatest-downloader-6-05/60%Monthly2011-02-18 10:00
http://download.yallablog.net/144108/java-runtime-environment-1-6-0-24/60%Monthly2011-02-18 10:00
http://download.yallablog.net/144109/java-runtime-environment-1-6-0-24-2/60%Monthly2011-02-18 10:00
http://download.yallablog.net/144095/google-chrome-11-0-672-2-beta/60%Monthly2011-02-18 06:48
http://download.yallablog.net/144096/virtualbox-4-0-4-70112/60%Monthly2011-02-18 05:59
http://download.yallablog.net/144097/ea-download-manager-7-3-1-16/60%Monthly2011-02-18 04:51
http://download.yallablog.net/144098/digsby-beta-build-87/60%Monthly2011-02-18 04:50
http://download.yallablog.net/144099/scribus-1-4-0-rc1/60%Monthly2011-02-18 04:47
http://download.yallablog.net/144091/maxthon-3-0-20-4000/60%Monthly2011-02-17 11:21
http://download.yallablog.net/144092/shareaza-2-5-4-0/60%Monthly2011-02-17 10:57
http://download.yallablog.net/144093/google-chrome-10-0-648-82-beta/60%Monthly2011-02-17 04:38
http://download.yallablog.net/144094/evernote-4-2-2-3900/60%Monthly2011-02-17 04:34
http://download.yallablog.net/144080/utorrent-2-2-0-build-24683/60%Monthly2011-02-16 06:38
http://download.yallablog.net/144081/clamwin-0-97/60%Monthly2011-02-16 05:51
http://download.yallablog.net/144082/ati-catalyst-drivers-11-2-vista/60%Monthly2011-02-16 05:28
http://download.yallablog.net/144083/metrotwit-0-5-0-beta/60%Monthly2011-02-16 05:01
http://download.yallablog.net/144084/metrotwit-0-5-0-beta-2/60%Monthly2011-02-16 05:01
http://download.yallablog.net/144085/java-runtime-environment-1-6-0-24-32-bit/60%Monthly2011-02-16 04:51
http://download.yallablog.net/144086/java-runtime-environment-1-6-0-24-32-bit-2/60%Monthly2011-02-16 04:51
http://download.yallablog.net/144087/trillian-astra-4-2-0-25/60%Monthly2011-02-16 04:41
http://download.yallablog.net/144088/trillian-astra-4-2-0-25/60%Monthly2011-02-16 04:41
http://download.yallablog.net/144089/windows-7-codecs-2-7-5/60%Monthly2011-02-16 04:39
http://download.yallablog.net/144090/windows-7-codecs-2-7-5/60%Monthly2011-02-16 04:39
http://download.yallablog.net/144077/silverlight-4-0-60129/60%Monthly2011-02-15 05:16
http://download.yallablog.net/144078/utorrent-2-2-1-beta-24649/60%Monthly2011-02-15 04:56
http://download.yallablog.net/144079/winpatrol-20-0-2011-0/60%Monthly2011-02-15 04:22
http://download.yallablog.net/144070/topstyle-4-0-0-84/60%Monthly2011-02-14 12:33
http://download.yallablog.net/144071/seamonkey-2-1-beta-2/60%Monthly2011-02-14 05:34
http://download.yallablog.net/144072/freemake-video-converter-2-1-0-1/60%Monthly2011-02-14 05:22
http://download.yallablog.net/144076/vista-codec-package-5-9-1-2/60%Monthly2011-02-14 03:00
http://download.yallablog.net/144073/paint-net-3-5-7-beta-1/60%Monthly2011-02-13 04:50
http://download.yallablog.net/144074/vista-codec-package-5-9-1/60%Monthly2011-02-13 03:46
http://download.yallablog.net/144075/vista-codec-package-5-9-1/60%Monthly2011-02-13 03:46
http://download.yallablog.net/144068/skype-5-2-for-windows/60%Monthly2011-02-12 10:00
http://download.yallablog.net/144069/nmap-5-51/60%Monthly2011-02-12 05:40
http://download.yallablog.net/144063/skype-5-2-0-102-beta/60%Monthly2011-02-11 14:10
http://download.yallablog.net/144064/internet-explorer-9-0-rc-vista/60%Monthly2011-02-11 06:40
http://download.yallablog.net/144065/immunet-protect-free-3-0-18/60%Monthly2011-02-11 06:23
http://download.yallablog.net/144066/fluffyapp-1-0-beta-3/60%Monthly2011-02-11 05:46
http://download.yallablog.net/144067/fraps-3-2-9/60%Monthly2011-02-11 04:30
http://download.yallablog.net/144053/peazip-3-6-1/60%Monthly2011-02-10 10:45
http://download.yallablog.net/144054/super-v2011-build-45/60%Monthly2011-02-10 05:30
http://download.yallablog.net/144055/inno-setup-5-4-1/60%Monthly2011-02-10 04:39
http://download.yallablog.net/144056/songbird-1-9-3/60%Monthly2011-02-10 04:33
http://download.yallablog.net/144057/pidgin-2-7-10/60%Monthly2011-02-10 04:24
http://download.yallablog.net/144044/phpmyadmin-3-3-9-1/60%Monthly2011-02-09 11:54
http://download.yallablog.net/144045/firefox-4-0-beta-11/60%Monthly2011-02-09 05:26
http://download.yallablog.net/144046/google-chrome-10-0-648-45-beta/60%Monthly2011-02-09 05:17
http://download.yallablog.net/144047/windows-7-codecs-2-7-4/60%Monthly2011-02-09 05:13
http://download.yallablog.net/144048/adobe-reader-10-0-1/60%Monthly2011-02-09 05:09
http://download.yallablog.net/144049/flash-player-10-2-152-26-non-ie/60%Monthly2011-02-09 04:35
http://download.yallablog.net/144050/flash-player-10-2-152-26-ie/60%Monthly2011-02-09 04:35
http://download.yallablog.net/144051/shockwave-player-11-5-9-620/60%Monthly2011-02-09 04:31
http://download.yallablog.net/144058/flash-player-10-2/60%Monthly2011-02-09 01:00
http://download.yallablog.net/144059/windows-7-codecs-2-7-4-2/60%Monthly2011-02-09 01:00
http://download.yallablog.net/144060/mozilla-firefox-4-beta-11/60%Monthly2011-02-09 01:00
http://download.yallablog.net/144061/adobe-reader-pdf-reader-x-10-0-1/60%Monthly2011-02-09 01:00
http://download.yallablog.net/144062/mysql-community-server-5-5-9/60%Monthly2011-02-09 01:00
http://download.yallablog.net/144042/mysql-5-1-55/60%Monthly2011-02-08 10:58
http://download.yallablog.net/144043/beyond-compare-3-2-4/60%Monthly2011-02-08 04:55
http://download.yallablog.net/144052/winrar-4-beta-6/60%Monthly2011-02-07 16:00
http://download.yallablog.net/144041/winrar-4-00-beta-6-32-bit/60%Monthly2011-02-07 04:35
http://download.yallablog.net/144027/smartftp-4-0-1165-0/60%Monthly2011-02-06 06:14
http://download.yallablog.net/144028/k-lite-mega-codec-pack-6-9-0/60%Monthly2011-02-05 19:00
http://download.yallablog.net/144029/defraggler-2-02/60%Monthly2011-02-05 19:00
http://download.yallablog.net/144030/notepad-plus-5-8-7/60%Monthly2011-02-05 19:00
http://download.yallablog.net/144031/k-lite-codec-pack-6-9-0-full/60%Monthly2011-02-05 19:00
http://download.yallablog.net/144032/k-lite-codec-pack-6-9-0-full-2/60%Monthly2011-02-05 19:00
http://download.yallablog.net/144033/realplayer-14-0-2/60%Monthly2011-02-05 19:00
http://download.yallablog.net/144034/realplayer-14-0-2/60%Monthly2011-02-05 19:00
http://download.yallablog.net/144035/any-video-converter-3-18-2/60%Monthly2011-02-05 19:00
http://download.yallablog.net/144036/any-video-converter-3-18-2/60%Monthly2011-02-05 19:00
http://download.yallablog.net/144037/opera-11-1-for-windows/60%Monthly2011-02-05 19:00
http://download.yallablog.net/144038/opera-11-1-for-windows/60%Monthly2011-02-05 19:00
http://download.yallablog.net/144039/vlc-media-player-1-1-7-2/60%Monthly2011-02-05 19:00
http://download.yallablog.net/144040/vlc-media-player-1-1-7-2/60%Monthly2011-02-05 19:00
http://download.yallablog.net/144025/kindle-for-pc-1-4-1-build-31629/60%Monthly2011-02-05 04:25
http://download.yallablog.net/144026/rainlendar-2-8-1/60%Monthly2011-02-05 03:59
http://download.yallablog.net/144021/fraps-3-2-8/60%Monthly2011-02-04 09:16
http://download.yallablog.net/144022/google-chrome-10-0-648-18-beta/60%Monthly2011-02-04 05:21
http://download.yallablog.net/144023/ea-download-manager-7-3-0-87/60%Monthly2011-02-04 05:03
http://download.yallablog.net/144024/vuze-4-6-0-2/60%Monthly2011-02-04 04:52
http://download.yallablog.net/144018/debut-video-capture-1-50-beta/60%Monthly2011-02-03 06:50
http://download.yallablog.net/144019/sandra-lite-2011-sp1-17-36/60%Monthly2011-02-03 06:20
http://download.yallablog.net/144020/incredimail-2-build-4878/60%Monthly2011-02-03 05:31
http://download.yallablog.net/144014/postbox-2-1-3/60%Monthly2011-02-02 04:51
http://download.yallablog.net/144015/vlc-media-player-1-1-7/60%Monthly2011-02-02 04:38
http://download.yallablog.net/144016/utorrent-2-2-0-build-24402/60%Monthly2011-02-02 04:28
http://download.yallablog.net/144017/miranda-0-9-16/60%Monthly2011-02-02 04:22
http://download.yallablog.net/144013/defraggler-2-02-253/60%Monthly2011-02-01 12:40
http://download.yallablog.net/144010/google-chrome-10-0-648-11-beta/60%Monthly2011-02-01 04:53
http://download.yallablog.net/144011/notepad-5-8-7/60%Monthly2011-02-01 04:35
http://download.yallablog.net/144012/skype-5-1-0-112/60%Monthly2011-02-01 04:31